K3BAY-1 Weather Reports


time (UTC)temp
C
wind
direction
speed
KPH
gust
KPH
rain 1hr
cm
rain 24hr
cm
rain mn
cm
humidity
%
barometer
mb
20260505212212 28 334 4.8 12.9 0.00 0.00 0.00 29 1012.6
20260505211708 29 12 3.2 16.1 0.00 0.00 0.00 29 1012.6
20260505211206 29 22 1.6 9.7 0.00 0.00 0.00 30 1012.6
20260505210702 30 29 3.2 6.4 0.00 0.00 0.00 30 1012.6
20260505210159 29 332 4.8 11.3 0.00 0.00 0.00 29 1012.9
20260505205657 29 15 1.6 6.4 0.00 0.00 0.00 29 1012.6
20260505205155 28 300 4.8 22.5 0.00 0.00 0.00 30 1012.6
20260505204651 29 306 3.2 6.4 0.00 0.00 0.00 30 1012.6
20260505204149 30 7 1.6 11.3 0.00 0.00 0.00 30 1012.6
20260505203646 29 60 6.4 24.1 0.00 0.00 0.00 29 1012.9
20260505203143 29 37 1.6 11.3 0.00 0.00 0.00 30 1012.9
20260505202638 30 309 11.3 22.5 0.00 0.00 0.00 29 1012.9
20260505202134 28 326 1.6 14.5 0.00 0.00 0.00 33 1012.9
20260505201631 28 255 1.6 3.2 0.00 0.00 0.00 40 1012.9
20260505201129 28 281 0.0 6.4 0.00 0.00 0.00 40 1013.2
20260505200627 29 328 4.8 6.4 0.00 0.00 0.00 32 1012.9
20260505200124 29 17 6.4 16.1 0.00 0.00 0.00 31 1012.9
20260505195620 29 314 6.4 9.7 0.00 0.00 0.00 31 1012.9
20260505195117 28 299 4.8 4.8 0.00 0.00 0.00 37 1012.9
20260505194615 28 1 0.0 4.8 0.00 0.00 0.00 40 1012.9
20260505194110 29 318 4.8 6.4 0.00 0.00 0.00 38 1012.9
20260505193607 29 304 1.6 17.7 0.00 0.00 0.00 32 1012.9
20260505193104 30 315 1.6 9.7 0.00 0.00 0.00 31 1013.2
20260505192603 29 99 1.6 6.4 0.00 0.00 0.00 32 1012.9
20260505192100 30 324 4.8 25.7 0.00 0.00 0.00 31 1012.9
20260505191558 29 31 3.2 9.7 0.00 0.00 0.00 31 1012.9
20260505191056 30 72 1.6 4.8 0.00 0.00 0.00 31 1012.9
20260505190550 29 209 11.3 16.1 0.00 0.00 0.00 31 1013.2
20260505190046 30 314 14.5 24.1 0.00 0.00 0.00 32 1012.9
20260505185543 29 28 1.6 16.1 0.00 0.00 0.00 32 1012.9
20260505185040 30 41 3.2 6.4 0.00 0.00 0.00 32 1013.2
20260505184537 30 103 4.8 12.9 0.00 0.00 0.00 33 1012.9
20260505184033 30 32 3.2 3.2 0.00 0.00 0.00 32 1012.9
20260505183530 30 338 3.2 9.7 0.00 0.00 0.00 32 1013.2
20260505183028 30 263 0.0 9.7 0.00 0.00 0.00 32 1012.9
20260505182524 31 18 3.2 3.2 0.00 0.00 0.00 31 1012.9
20260505182020 30 63 1.6 6.4 0.00 0.00 0.00 30 1013.2
20260505181517 29 65 0.0 3.2 0.00 0.00 0.00 33 1012.9
20260505181015 28 50 0.0 6.4 0.00 0.00 0.00 33 1012.9
20260505180510 30 4 1.6 11.3 0.00 0.00 0.00 32 1013.2
20260505180009 29 52 3.2 6.4 0.00 0.00 0.00 33 1013.2
20260505175503 29 12 4.8 4.8 0.00 0.00 0.00 31 1012.9
20260505175000 28 307 3.2 9.7 0.00 0.00 0.00 33 1012.9
20260505174457 28 53 1.6 3.2 0.00 0.00 0.00 36 1012.9
20260505173953 28 13 1.6 6.4 0.00 0.00 0.00 35 1012.9
20260505173450 28 349 0.0 3.2 0.00 0.00 0.00 36 1012.9
20260505172947 27 75 1.6 14.5 0.00 0.00 0.00 37 1012.9
20260505172445 27 321 0.0 11.3 0.00 0.00 0.00 43 1012.6
20260505171944 27 355 0.0 4.8 0.00 0.00 0.00 45 1012.9
20260505171442 27 300 3.2 4.8 0.00 0.00 0.00 45 1012.9
20260505170938 27 309 1.6 6.4 0.00 0.00 0.00 47 1012.9
20260505170435 28 92 0.0 3.2 0.00 0.00 0.00 46 1012.9
20260505165930 28 280 0.0 3.2 0.00 0.00 0.00 43 1012.6
20260505165427 28 350 3.2 4.8 0.00 0.00 0.00 39 1012.9
20260505164922 27 339 3.2 4.8 0.00 0.00 0.00 46 1012.9
20260505164419 28 57 0.0 1.6 0.00 0.00 0.00 43 1012.6
20260505163917 28 78 4.8 4.8 0.00 0.00 0.00 42 1012.6
20260505163416 28 52 4.8 6.4 0.00 0.00 0.00 38 1012.6
20260505162914 28 333 1.6 4.8 0.00 0.00 0.00 40 1012.6
20260505162410 27 13 1.6 9.7 0.00 0.00 0.00 41 1012.9
20260505161907 28 53 3.2 3.2 0.00 0.00 0.00 38 1012.6
20260505161404 28 73 0.0 0.0 0.00 0.00 0.00 40 1012.9
20260505160901 27 68 3.2 6.4 0.00 0.00 0.00 41 1012.6
20260505160359 27 35 1.6 4.8 0.00 0.00 0.00 41 1012.6
20260505153337 27 312 3.2 3.2 0.00 0.00 0.00 43 1011.9
20260505152835 27 3 1.6 3.2 0.00 0.00 0.00 44 1011.9
20260505152331 26 315 6.4 6.4 0.00 0.00 0.00 44 1011.9
20260505151826 26 309 3.2 4.8 0.00 0.00 0.00 45 1011.9
20260505151323 26 81 0.0 3.2 0.00 0.00 0.00 44 1011.5
20260505150820 26 63 0.0 0.0 0.00 0.00 0.00 43 1011.1
20260505150317 25 32 0.0 0.0 0.00 0.00 0.00 46 1011.1
20260505140241 23 86 0.0 0.0 0.00 0.00 0.00 49 1010.1
20260505130205 21 85 0.0 4.8 0.00 0.00 0.00 54 1009.4
20260505124655 20 60 1.6 3.2 0.00 0.00 0.00 57 1009.1
20260505124151 20 92 0.0 4.8 0.00 0.00 0.00 58 1009.4
20260505123647 20 345 0.0 3.2 0.00 0.00 0.00 56 1009.4
20260505123145 20 303 3.2 6.4 0.00 0.00 0.00 58 1009.4
20260505122641 19 42 1.6 4.8 0.00 0.00 0.00 58 1009.1
20260505122138 19 327 3.2 3.2 0.00 0.00 0.00 59 1009.1
20260505121635 19 86 0.0 3.2 0.00 0.00 0.00 59 1009.1
20260505121132 19 89 3.2 3.2 0.00 0.00 0.00 59 1008.7
20260505120627 18 80 0.0 3.2 0.00 0.00 0.00 60 1009.1
20260505120124 18 89 0.0 3.2 0.00 0.00 0.00 60 1008.7
20260505115618 18 55 0.0 3.2 0.00 0.00 0.00 60 1009.1
20260505115116 18 59 0.0 3.2 0.00 0.00 0.00 60 1008.7
20260505114612 18 123 1.6 3.2 0.00 0.00 0.00 61 1008.7
20260505114109 17 13 1.6 9.7 0.00 0.00 0.00 60 1008.7
20260505113605 17 75 3.2 4.8 0.00 0.00 0.00 60 1008.7
20260505113102 17 64 1.6 3.2 0.00 0.00 0.00 61 1008.7
20260505112558 17 85 1.6 3.2 0.00 0.00 0.00 62 1008.7
20260505112056 17 75 0.0 0.0 0.00 0.00 0.00 62 1008.7
20260505111550 17 32 0.0 3.2 0.00 0.00 0.00 62 1008.4
20260505111046 17 72 1.6 3.2 0.00 0.00 0.00 61 1009.1
20260505110543 17 336 1.6 3.2 0.00 0.00 0.00 62 1008.7
20260505102015 16 51 1.6 6.4 0.00 0.00 0.00 61 1008.7
20260505101514 16 11 4.8 11.3 0.00 0.00 0.00 62 1008.4
20260505101010 16 35 0.0 4.8 0.00 0.00 0.00 62 1008.7
20260505100507 16 330 3.2 4.8 0.00 0.00 0.00 61 1008.7
20260505100004 16 62 1.6 3.2 0.00 0.00 0.00 61 1008.7
20260505095500 16 336 1.6 4.8 0.00 0.00 0.00 61 1008.7
20260505094956 16 88 3.2 3.2 0.00 0.00 0.00 62 1008.7
20260505094453 16 120 3.2 6.4 0.00 0.00 0.00 61 1008.7
20260505093949 16 77 0.0 3.2 0.00 0.00 0.00 62 1008.7
20260505093446 16 59 0.0 3.2 0.00 0.00 0.00 62 1008.7
20260505092943 16 82 1.6 3.2 0.00 0.00 0.00 62 1008.7
20260505092441 16 25 1.6 3.2 0.00 0.00 0.00 62 1008.7
20260505091938 16 82 1.6 3.2 0.00 0.00 0.00 62 1008.7
20260505091436 16 63 0.0 3.2 0.00 0.00 0.00 62 1008.7
20260505090933 16 55 0.0 6.4 0.00 0.00 0.00 62 1008.7
20260505090431 16 303 3.2 4.8 0.00 0.00 0.00 61 1008.7
20260505085928 17 341 3.2 3.2 0.00 0.00 0.00 62 1008.7
20260505085426 17 84 0.0 1.6 0.00 0.00 0.00 62 1008.4
20260505084924 17 3 1.6 4.8 0.00 0.00 0.00 61 1008.7
20260505084422 17 299 3.2 3.2 0.00 0.00 0.00 62 1008.7
20260505083920 17 40 3.2 4.8 0.00 0.00 0.00 61 1009.1
20260505083417 17 335 1.6 3.2 0.00 0.00 0.00 62 1008.7
20260505082913 17 80 3.2 6.4 0.00 0.00 0.00 62 1009.1
20260505082409 17 70 1.6 6.4 0.00 0.00 0.00 61 1009.1
20260505081907 17 162 3.2 9.7 0.00 0.00 0.00 61 1009.1
20260505081403 17 334 3.2 3.2 0.00 0.00 0.00 62 1009.1
20260505080900 17 19 1.6 12.9 0.00 0.00 0.00 61 1009.1
20260505080355 17 2 0.0 6.4 0.00 0.00 0.00 62 1009.1
20260505075851 16 63 3.2 3.2 0.00 0.00 0.00 64 1009.1
20260505075348 16 74 0.0 4.8 0.00 0.00 0.00 64 1009.1
20260505074845 16 43 1.6 4.8 0.00 0.00 0.00 64 1009.1
20260505074342 16 59 1.6 4.8 0.00 0.00 0.00 64 1009.1
20260505073840 16 336 3.2 3.2 0.00 0.00 0.00 65 1009.1
20260505073338 16 332 3.2 3.2 0.00 0.00 0.00 66 1009.1
20260505072834 16 68 3.2 9.7 0.00 0.00 0.00 66 1009.1
20260505072331 16 341 3.2 9.7 0.00 0.00 0.00 67 1009.1
20260505071827 16 14 1.6 3.2 0.00 0.00 0.00 69 1009.1
20260505071323 16 35 1.6 3.2 0.00 0.00 0.00 69 1009.4
20260505070822 15 51 1.6 3.2 0.00 0.00 0.00 70 1009.1
20260505070318 15 42 0.0 3.2 0.00 0.00 0.00 70 1009.4
20260505065813 16 40 1.6 4.8 0.00 0.00 0.00 69 1009.4
20260505065310 16 79 0.0 3.2 0.00 0.00 0.00 68 1009.4
20260505064807 16 60 0.0 3.2 0.00 0.00 0.00 68 1009.4
20260505064304 16 25 1.6 4.8 0.00 0.00 0.00 68 1009.4
20260505063803 16 58 0.0 3.2 0.00 0.00 0.00 68 1009.4
20260505063258 16 19 1.6 3.2 0.00 0.00 0.00 67 1009.4
20260505062755 16 39 1.6 3.2 0.00 0.00 0.00 66 1009.7
20260505062252 16 51 3.2 3.2 0.00 0.00 0.00 65 1009.4
20260505061749 17 84 1.6 3.2 0.00 0.00 0.00 62 1009.4
20260505061247 17 68 0.0 3.2 0.00 0.00 0.00 61 1009.4
20260505060744 17 52 3.2 3.2 0.00 0.00 0.00 62 1009.4
20260505060241 17 9 1.6 3.2 0.00 0.00 0.00 63 1009.4
20260505055736 17 66 1.6 3.2 0.00 0.00 0.00 62 1009.7
20260505055233 17 358 1.6 3.2 0.00 0.00 0.00 62 1009.7
20260505054730 17 51 1.6 3.2 0.00 0.00 0.00 61 1009.7
20260505054228 17 325 1.6 3.2 0.00 0.00 0.00 61 1009.7
20260505053726 17 18 3.2 3.2 0.00 0.00 0.00 61 1009.7
20260505053222 17 42 1.6 6.4 0.00 0.00 0.00 61 1009.7
20260505052720 17 317 1.6 3.2 0.00 0.00 0.00 62 1009.7
20260505052216 17 73 3.2 3.2 0.00 0.00 0.00 63 1010.1
20260505051714 17 339 1.6 3.2 0.00 0.00 0.00 63 1009.7
20260505051212 17 29 1.6 3.2 0.00 0.00 0.00 64 1009.7
20260505050709 17 61 3.2 4.8 0.00 0.00 0.00 63 1009.7
20260505050207 17 32 3.2 3.2 0.00 0.00 0.00 63 1009.7
20260505041637 17 352 1.6 6.4 0.00 0.00 0.00 68 1010.1
20260505041134 17 15 1.6 4.8 0.00 0.00 0.00 67 1010.1
20260505040631 17 33 3.2 3.2 0.00 0.00 0.00 68 1009.7
20260505040128 17 53 0.0 3.2 0.00 0.00 0.00 68 1010.1
20260505035624 17 50 1.6 3.2 0.00 0.00 0.00 68 1010.4
20260505035121 17 50 3.2 3.2 0.00 0.00 0.00 69 1010.1
20260505034617 17 23 1.6 3.2 0.00 0.00 0.00 69 1010.1
20260505034114 17 18 3.2 3.2 0.00 0.00 0.00 69 1010.1
20260505033611 17 347 3.2 3.2 0.00 0.00 0.00 69 1010.4
20260505033110 17 9 1.6 3.2 0.00 0.00 0.00 69 1010.1
20260505032607 17 314 4.8 6.4 0.00 0.00 0.00 69 1010.4
20260505032103 17 331 1.6 3.2 0.00 0.00 0.00 71 1010.4
20260505031601 17 42 1.6 6.4 0.00 0.00 0.00 70 1010.4
20260505031057 17 326 3.2 6.4 0.00 0.00 0.00 70 1010.4
20260505030554 17 2 3.2 4.8 0.00 0.00 0.00 70 1010.4
20260505030050 17 30 3.2 6.4 0.00 0.00 0.00 70 1010.4
20260505025546 17 47 1.6 3.2 0.00 0.00 0.00 70 1010.8
20260505025045 17 341 3.2 9.7 0.00 0.00 0.00 69 1010.8
20260505024542 17 354 0.0 6.4 0.00 0.00 0.00 69 1010.8
20260505024039 17 331 1.6 4.8 0.00 0.00 0.00 68 1010.8
20260505023536 17 46 1.6 3.2 0.00 0.00 0.00 68 1010.8
20260505023033 17 317 1.6 6.4 0.00 0.00 0.00 67 1010.8
20260505022531 17 38 1.6 4.8 0.00 0.00 0.00 66 1010.8
20260505022028 17 61 1.6 4.8 0.00 0.00 0.00 65 1011.1
20260505021524 18 358 3.2 6.4 0.00 0.00 0.00 64 1010.8
20260505021021 18 73 0.0 3.2 0.00 0.00 0.00 63 1010.8
20260505020515 18 70 0.0 4.8 0.00 0.00 0.00 62 1011.1
20260505020013 18 17 3.2 4.8 0.00 0.00 0.00 62 1011.1
20260505015510 18 17 3.2 3.2 0.00 0.00 0.00 61 1010.8
20260505015006 18 68 3.2 4.8 0.00 0.00 0.00 61 1011.1
20260505014503 18 16 3.2 3.2 0.00 0.00 0.00 61 1011.1
20260505014001 18 68 0.0 3.2 0.00 0.00 0.00 62 1011.1
20260505013457 18 338 3.2 3.2 0.00 0.00 0.00 62 1011.5
20260505012954 18 314 3.2 4.8 0.00 0.00 0.00 62 1011.1
20260505012453 18 27 1.6 3.2 0.00 0.00 0.00 63 1011.1
20260505011949 18 31 3.2 4.8 0.00 0.00 0.00 62 1011.1
20260505011445 18 81 0.0 4.8 0.00 0.00 0.00 63 1011.5
20260505010942 18 275 0.0 3.2 0.00 0.00 0.00 64 1011.5
20260505010438 18 79 1.6 3.2 0.00 0.00 0.00 63 1011.1
20260505005934 18 10 1.6 3.2 0.00 0.00 0.00 63 1011.5
20260505005431 18 352 3.2 4.8 0.00 0.00 0.00 62 1011.5
20260505004929 18 43 1.6 3.2 0.00 0.00 0.00 62 1011.5
20260505004425 18 30 0.0 3.2 0.00 0.00 0.00 62 1011.5
20260505003922 18 55 0.0 3.2 0.00 0.00 0.00 61 1011.5
20260505003419 18 35 1.6 3.2 0.00 0.00 0.00 61 1011.5
20260505002915 18 43 1.6 3.2 0.00 0.00 0.00 60 1011.5
20260505002412 18 73 0.0 3.2 0.00 0.00 0.00 60 1011.5
20260505001910 18 3 3.2 4.8 0.00 0.00 0.00 59 1011.5
20260505001408 18 27 1.6 3.2 0.00 0.00 0.00 59 1011.9
20260505000905 18 320 1.6 3.2 0.00 0.00 0.00 58 1011.9
20260505000403 19 46 0.0 4.8 0.00 0.00 0.00 57 1011.9
20260504235859 19 0 3.2 3.2 0.00 0.00 0.00 56 1011.5
20260504235356 19 343 4.8 6.4 0.00 0.00 0.00 55 1011.9
20260504234852 19 31 1.6 4.8 0.00 0.00 0.00 55 1011.9
20260504234350 20 326 0.0 4.8 0.00 0.00 0.00 54 1011.9
20260504233846 20 332 0.0 4.8 0.00 0.00 0.00 54 1012.2
20260504233342 20 334 0.0 3.2 0.00 0.00 0.00 53 1011.9
20260504232839 20 335 3.2 4.8 0.00 0.00 0.00 52 1011.9
20260504232336 20 54 0.0 6.4 0.00 0.00 0.00 50 1011.9
20260504231833 20 321 4.8 6.4 0.00 0.00 0.00 49 1011.9
20260504231329 20 191 4.8 6.4 0.00 0.00 0.00 48 1011.9
20260504230825 20 26 3.2 4.8 0.00 0.00 0.00 46 1011.9
20260504230324 20 323 3.2 11.3 0.00 0.00 0.00 47 1011.9
20260504225822 21 92 0.0 4.8 0.00 0.00 0.00 46 1011.9
20260504225318 21 206 0.0 12.9 0.00 0.00 0.00 44 1012.2
20260504224816 21 128 0.0 4.8 0.00 0.00 0.00 44 1011.9
20260504224312 21 308 3.2 9.7 0.00 0.00 0.00 44 1012.2
20260504223809 21 333 3.2 11.3 0.00 0.00 0.00 44 1011.9
20260504223304 21 322 4.8 16.1 0.00 0.00 0.00 44 1012.2
20260504222801 21 39 1.6 9.7 0.00 0.00 0.00 44 1012.2
20260504222258 22 123 3.2 6.4 0.00 0.00 0.00 43 1012.6
20260504221756 22 59 3.2 6.4 0.00 0.00 0.00 42 1012.6
20260504221253 22 305 3.2 11.3 0.00 0.00 0.00 42 1012.6
20260504220749 22 309 3.2 4.8 0.00 0.00 0.00 42 1012.6
20260504220247 22 308 8.0 12.9 0.00 0.00 0.00 42 1012.6
20260504215744 22 345 0.0 1.6 0.00 0.00 0.00 42 1012.6
20260504215240 22 72 0.0 4.8 0.00 0.00 0.00 42 1012.6
20260504214736 22 31 3.2 4.8 0.00 0.00 0.00 41 1012.6
20260504214233 22 38 1.6 4.8 0.00 0.00 0.00 41 1012.6
20260504213730 22 343 6.4 6.4 0.00 0.00 0.00 41 1012.9
20260504213225 23 302 3.2 4.8 0.00 0.00 0.00 41 1012.9
20260504212723 23 286 0.0 3.2 0.00 0.00 0.00 40 1012.6